TimeCDT,TemperatureF,Dew PointF,Humidity,Sea Level PressureIn,VisibilityMPH,Wind Direction,Wind SpeedMPH,Gust SpeedMPH,PrecipitationIn,Events,Conditions,WindDirDegrees,DateUTC
12:30 AM,35.4,19.2,52,30.37,10.0,NNW,5.8,-,N/A,,Clear,340,2012-10-12 05:30:00
12:50 AM,35.6,19.0,51,30.38,10.0,North,4.6,-,N/A,,Clear,350,2012-10-12 05:50:00
1:10 AM,35.2,19.2,52,30.39,10.0,North,4.6,-,N/A,,Clear,350,2012-10-12 06:10:00
1:30 AM,34.9,19.4,53,30.39,10.0,North,5.8,-,N/A,,Clear,350,2012-10-12 06:30:00
1:50 AM,34.2,19.4,55,30.40,10.0,North,4.6,-,N/A,,Clear,350,2012-10-12 06:50:00
2:10 AM,34.0,19.4,55,30.40,10.0,North,3.5,-,N/A,,Clear,360,2012-10-12 07:10:00
2:30 AM,34.2,19.4,55,30.40,10.0,North,3.5,-,N/A,,Clear,360,2012-10-12 07:30:00
2:50 AM,34.2,19.4,55,30.40,10.0,Calm,Calm,-,N/A,,Clear,0,2012-10-12 07:50:00
3:10 AM,32.4,19.6,59,30.40,10.0,North,4.6,-,N/A,,Clear,360,2012-10-12 08:10:00
3:50 AM,33.4,19.4,56,30.40,10.0,North,3.5,-,N/A,,Clear,360,2012-10-12 08:50:00
4:10 AM,33.3,19.4,57,30.40,10.0,Calm,Calm,-,N/A,,Clear,0,2012-10-12 09:10:00
4:30 AM,30.9,19.4,62,30.41,7.0,NNW,3.5,-,N/A,,Clear,340,2012-10-12 09:30:00
5:10 AM,30.7,19.8,64,30.41,10.0,North,3.5,-,N/A,,Clear,360,2012-10-12 10:10:00
5:31 AM,30.2,19.4,64,30.42,10.0,Calm,Calm,-,N/A,,Clear,0,2012-10-12 10:31:00
5:50 AM,30.2,19.9,66,30.42,10.0,Calm,Calm,-,N/A,,Clear,0,2012-10-12 10:50:00
6:10 AM,32.0,19.4,60,30.43,10.0,Calm,Calm,-,N/A,,Clear,0,2012-10-12 11:10:00
6:31 AM,31.8,19.2,60,30.43,10.0,Calm,Calm,-,N/A,,Clear,0,2012-10-12 11:31:00
6:50 AM,29.8,20.1,67,30.42,10.0,Calm,Calm,-,N/A,,Clear,0,2012-10-12 11:50:00
7:10 AM,30.0,19.9,66,30.42,10.0,Calm,Calm,-,N/A,,Clear,0,2012-10-12 12:10:00
7:30 AM,29.3,19.8,68,30.43,10.0,NNE,3.5,-,N/A,,Clear,30,2012-10-12 12:30:00
7:50 AM,30.0,20.1,67,30.42,10.0,Calm,Calm,-,N/A,,Clear,0,2012-10-12 12:50:00
8:10 AM,28.9,20.3,70,30.43,10.0,Calm,Calm,-,N/A,,Clear,0,2012-10-12 13:10:00
8:30 AM,29.1,22.1,75,30.43,10.0,SSW,4.6,-,N/A,,Clear,200,2012-10-12 13:30:00
9:11 AM,36.7,23.2,58,30.44,10.0,ESE,4.6,-,N/A,,Clear,110,2012-10-12 14:11:00
9:30 AM,38.3,22.3,53,30.44,10.0,SE,4.6,-,N/A,,Clear,130,2012-10-12 14:30:00
9:50 AM,39.6,22.6,51,30.45,10.0,ESE,6.9,-,N/A,,Clear,120,2012-10-12 14:50:00
10:10 AM,40.6,23.0,49,30.44,10.0,SE,6.9,-,N/A,,Clear,140,2012-10-12 15:10:00
10:30 AM,42.3,22.5,45,30.44,10.0,ESE,9.2,-,N/A,,Clear,120,2012-10-12 15:30:00
10:50 AM,43.9,21.6,41,30.43,10.0,ESE,11.5,-,N/A,,Clear,120,2012-10-12 15:50:00
11:10 AM,45.5,20.3,37,30.42,10.0,SE,8.1,-,N/A,,Clear,130,2012-10-12 16:10:00
11:30 AM,46.2,18.7,33,30.41,10.0,SE,10.4,16.1,N/A,,Clear,140,2012-10-12 16:30:00
12:10 PM,47.5,15.8,28,30.40,10.0,SE,9.2,-,N/A,,Clear,130,2012-10-12 17:10:00
12:30 PM,48.7,16.2,27,30.40,10.0,ESE,10.4,17.3,N/A,,Clear,120,2012-10-12 17:30:00
12:50 PM,49.3,15.4,26,30.39,10.0,ESE,11.5,17.3,N/A,,Clear,120,2012-10-12 17:50:00
1:30 PM,51.1,15.3,24,30.36,10.0,SE,10.4,16.1,N/A,,Clear,140,2012-10-12 18:30:00
2:50 PM,52.2,13.8,22,30.32,10.0,South,11.5,-,N/A,,Clear,180,2012-10-12 19:50:00
3:30 PM,53.1,10.2,18,30.31,10.0,South,12.7,19.6,N/A,,Clear,170,2012-10-12 20:30:00
3:50 PM,53.8,10.9,18,30.30,10.0,SSE,10.4,-,N/A,,Clear,150,2012-10-12 20:50:00
4:10 PM,53.6,11.5,19,30.29,10.0,South,11.5,-,N/A,,Clear,180,2012-10-12 21:10:00
4:30 PM,54.0,10.2,17,30.28,10.0,SSE,10.4,-,N/A,,Clear,160,2012-10-12 21:30:00
4:50 PM,53.6,11.8,19,30.28,10.0,South,9.2,-,N/A,,Clear,170,2012-10-12 21:50:00
5:10 PM,53.2,12.0,19,30.27,10.0,SSE,11.5,17.3,N/A,,Clear,150,2012-10-12 22:10:00
5:30 PM,52.9,12.6,20,30.27,10.0,South,11.5,-,N/A,,Clear,170,2012-10-12 22:30:00
5:50 PM,52.5,10.4,19,30.25,10.0,SSE,10.4,-,N/A,,Clear,160,2012-10-12 22:50:00
6:10 PM,50.9,12.6,22,30.23,10.0,SE,6.9,-,N/A,,Clear,140,2012-10-12 23:10:00
6:30 PM,50.0,13.8,24,30.23,10.0,SE,6.9,-,N/A,,Clear,140,2012-10-12 23:30:00
6:50 PM,48.7,13.8,25,30.22,10.0,SSE,6.9,-,N/A,,Clear,150,2012-10-12 23:50:00
7:10 PM,48.2,13.8,25,30.21,10.0,SE,5.8,-,N/A,,Clear,140,2012-10-13 00:10:00
7:50 PM,46.4,14.7,28,30.19,10.0,SE,8.1,-,N/A,,Clear,140,2012-10-13 00:50:00
8:10 PM,46.8,14.4,27,30.16,10.0,SE,9.2,-,N/A,,Clear,140,2012-10-13 01:10:00
8:31 PM,46.2,14.7,28,30.16,10.0,SE,8.1,-,N/A,,Clear,140,2012-10-13 01:31:00
8:50 PM,45.7,15.8,30,30.17,10.0,SSE,6.9,-,N/A,Thunderstorm,Scattered Clouds,160,2012-10-13 01:50:00
9:10 PM,45.9,15.4,30,30.16,10.0,SE,8.1,-,N/A,,Mostly Cloudy,140,2012-10-13 02:10:00
9:30 PM,46.4,15.6,29,30.16,10.0,SSE,6.9,-,N/A,,Overcast,150,2012-10-13 02:30:00
10:10 PM,48.4,18.9,31,30.16,10.0,South,12.7,-,N/A,Rain,Light Rain,170,2012-10-13 03:10:00
10:50 PM,48.4,21.7,35,30.13,10.0,SSE,12.7,-,N/A,,Overcast,150,2012-10-13 03:50:00
11:10 PM,48.6,21.4,34,30.11,10.0,SSE,10.4,-,N/A,,Overcast,150,2012-10-13 04:10:00
11:30 PM,48.2,22.6,37,30.11,10.0,SSE,11.5,18.4,N/A,,Overcast,160,2012-10-13 04:30:00